Change the Weather History Date:

Monday, August 11, 2014

  Actual Average Record
Temperature  
Mean Temperature 77 °F 79 °F  
Max Temperature 90 °F 92 °F 106 °F (2012)
Min Temperature 64 °F 65 °F 57 °F (2004)
Degree Days  
Heating Degree Days 0 0  
Month to date heating degree days 0 0  
Since 1 June heating degree days 9 8  
Since 1 July heating degree days 4 0  
Cooling Degree Days 12 14  
Month to date cooling degree days 146 155  
Year to date cooling degree days 1099 997  
Since 1 June cooling degree days 921 889  
Growing Degree Days 26 (Base 50)    
Moisture  
Dew Point 60 °F    
Average Humidity 57    
Maximum Humidity 78    
Minimum Humidity 36    
Precipitation  
Precipitation 0.04 in 0.09 in 0.84 in (2011)
Month to date precipitation 0.28 0.93  
Year to date precipitation 7.99 12.78  
Snow  
Snow 0.00 in - - ()
Month to date snowfall 0.0  
Since 1 June snowfall 0.0  
Since 1 July snowfall 0.0  
Snow Depth 0.00 in    
Sea Level Pressure  
Sea Level Pressure 30.10 in    
Wind  
Wind Speed 7 mph (NNE)    
Max Wind Speed 20 mph    
Max Gust Speed 27 mph    
Visibility 10 miles    
Events Rain    
T = Trace of Precipitation, MM = Missing Value Source: NWS Daily Summary

Daily Weather History Graph

Daily Weather History Graph

Search for Another Location

Airport or City:

Trip Planner

Search our weather history database for the weather conditions in past years. The results will help you decide how hot, cold, wet, or windy it might be!

Date:

Astronomy

Aug. 11, 2014 Rise Set
Actual Time 7:00 AM CDT 8:41 PM CDT
Civil Twilight 6:32 AM CDT 9:09 PM CDT
Nautical Twilight 5:58 AM CDT 9:42 PM CDT
Astronomical Twilight 5:23 AM CDT 10:18 PM CDT
Moon 9:15 PM CDT (8/11) 8:04 AM CDT (8/11)
Length of Visible Light 14h 37m
Length of Day
13h 41m
Full, 99% of the Moon is Illuminated
Aug 11
Full
Aug 17
Last Quarter
Aug 25
New
Sep 2
First Quarter
Sep 8
Full

Hourly Weather History & Observations

Time (CDT) Temp. Heat Index Dew Point Humidity Pressure Visibility Wind Dir Wind Speed Gust Speed Precip Events Conditions
12:53 AM 70.0 °F - 60.1 °F 71% 30.13 in 10.0 mi WNW 18.4 mph 29.9 mph N/A   Mostly Cloudy
1:53 AM 69.1 °F - 61.0 °F 75% 30.10 in 10.0 mi WNW 13.8 mph - N/A   Clear
2:53 AM 69.1 °F - 60.1 °F 73% 30.09 in 10.0 mi NNW 8.1 mph - N/A   Partly Cloudy
3:53 AM 68.0 °F - 59.0 °F 73% 30.09 in 10.0 mi NNW 8.1 mph - N/A   Clear
4:53 AM 66.0 °F - 57.9 °F 75% 30.09 in 10.0 mi NNW 6.9 mph - N/A   Clear
5:53 AM 66.9 °F - 57.9 °F 73% 30.09 in 10.0 mi North 6.9 mph - N/A   Overcast
6:53 AM 64.0 °F - 57.9 °F 80% 30.10 in 10.0 mi North 5.8 mph - N/A   Clear
7:53 AM 68.0 °F - 59.0 °F 73% 30.11 in 10.0 mi NNW 8.1 mph - N/A   Clear
8:53 AM 73.9 °F - 59.0 °F 59% 30.12 in 10.0 mi North 12.7 mph - N/A   Clear
9:53 AM 77.0 °F - 59.0 °F 54% 30.13 in 10.0 mi North 10.4 mph - N/A   Mostly Cloudy
10:53 AM 80.1 °F 80.7 °F 59.0 °F 48% 30.14 in 10.0 mi North 10.4 mph - N/A   Scattered Clouds
11:53 AM 81.0 °F 81.9 °F 62.1 °F 52% 30.14 in 10.0 mi Variable 4.6 mph - N/A   Scattered Clouds
12:53 PM 84.9 °F 85.0 °F 61.0 °F 44% 30.13 in 10.0 mi East 5.8 mph - N/A   Mostly Cloudy
1:53 PM 86.0 °F 85.7 °F 60.1 °F 41% 30.11 in 10.0 mi Variable 5.8 mph - N/A   Clear
2:53 PM 88.0 °F 86.9 °F 57.9 °F 36% 30.09 in 10.0 mi North 10.4 mph 18.4 mph N/A   Partly Cloudy
3:53 PM 87.1 °F 86.5 °F 59.0 °F 39% 30.07 in 10.0 mi Variable 6.9 mph - N/A   Scattered Clouds
4:53 PM 88.0 °F 86.7 °F 57.0 °F 35% 30.06 in 10.0 mi East 4.6 mph 18.4 mph N/A   Scattered Clouds
5:53 PM 75.0 °F - 66.9 °F 76% 30.10 in 9.0 mi SE 11.5 mph 24.2 mph 0.04 in Rain Light Rain
6:53 PM 81.0 °F 82.5 °F 64.0 °F 56% 30.06 in 10.0 mi South 5.8 mph - 0.00 in   Clear
7:53 PM 80.1 °F 81.1 °F 61.0 °F 52% 30.06 in 10.0 mi SSE 5.8 mph - N/A   Partly Cloudy
8:53 PM 75.9 °F - 62.1 °F 62% 30.07 in 10.0 mi SSE 4.6 mph - N/A   Clear
9:53 PM 73.0 °F - 61.0 °F 66% 30.09 in 10.0 mi SE 3.5 mph - N/A   Clear
10:53 PM 71.1 °F - 61.0 °F 70% 30.12 in 10.0 mi Calm Calm - N/A   Clear
11:53 PM 70.0 °F - 61.0 °F 73% 30.12 in 10.0 mi SE 6.9 mph - N/A   Clear